{"data":{"norad_id":61207,"epoch":"2026-05-25T01:15:28.096128Z","epoch_age_seconds":84715,"freshness":"FRESH","line1":"1 61207U 24171H   26145.05240852  .00004069  00000+0  38440-4 0  9996","line2":"2 61207  53.1585 159.7237 0000899 118.8093 241.3015 15.69700024 96392","mean_motion":15.69700024,"eccentricity":8.99e-5,"inclination_deg":53.1585,"raan_deg":159.7237,"arg_perigee_deg":118.8093,"mean_anomaly_deg":241.3015,"bstar":3.844e-5,"rev_number":9639,"period_min":91.737273235845,"perigee_km":359.14956154677,"apogee_km":360.36103458196,"semimajor_km":6737.8922980644,"source":"CELESTRAK","updated_at":"2026-05-25T13:38:19.359923Z"}}